Regional Weather Roundup
Issued by NWS

Home | Current Version | Previous Version | Text Only | Print | Product List | Glossary Off
Versions: 1 2 3 4 5 6 7 8 9 10 11 12 13 14 15 16 17 18 19 20 21 22 23 24 25 26 27 28 29 30 31 32 33 34 35 36 37 38 39 40 41 42 43 44 45 46 47 48 49 50

788
ASUS43 KDMX 192201
RWRIA

WEATHER ROUNDUP FOR IOWA
NATIONAL WEATHER SERVICE DES MOINES IA
500 PM CDT THU APR 19 2018

NOTE: "FAIR" INDICATES FEW OR NO CLOUDS BELOW 12,000 FEET WITH NO
SIGNIFICANT WEATHER AND/OR OBSTRUCTIONS TO VISIBILITY.

* - THESE STATIONS ARE NOT NWS STATIONS...THUS NOT UNDER NWS
QUALITY CONTROL.  THEY ALSO DO NOT REPORT WEATHER SUCH
AS PRECIPITATION OR FOG.

IAZ001>003-012>014-020>022-031>034-043>046-192300-
   NORTHWEST IOWA

CITY           SKY/WX    TMP DP  RH WIND       PRES   REMARKS
CARROLL *      SUNNY     50  30  46 NE8G18    30.43F
CHEROKEE *     SUNNY     39  26  58 E6        30.47S
DENISON *      SUNNY     52  28  40 VRB6G13   30.44S
LE MARS *      SUNNY     45  30  57 E9        30.45F
ORANGE CITY *  SUNNY     41  30  65 E3        30.46F
SHELDON *      SUNNY     39  28  65 SE6       30.45S WCI  35
SIOUX CITY     SUNNY     54  33  45 E13       30.42F
SPENCER        SUNNY     38  24  57 S8        30.47S WCI  32
STORM LAKE *   SUNNY     37  27  65 E9        30.45F WCI  31
$$

IAZ055>058-069>071-079>083-090>094-192300-
   SOUTHWEST IOWA

CITY           SKY/WX    TMP DP  RH WIND       PRES   REMARKS
ATLANTIC *     SUNNY     55  27  33 NE10      30.40F
AUDUBON *      SUNNY     54  28  37 NE5       30.43F
CLARINDA *     SUNNY     59  27  29 SE6G13    30.42F
COUNCIL BLFS * SUNNY     57  30  35 VRB6G12   30.39F
CRESTON *      SUNNY     55  23  28 VRB3G15   30.42F
HARLAN  *      SUNNY     55  25  30 VRB5G14   30.44F
LAMONI         SUNNY     56  28  34 E7        30.41F
RED OAK *      SUNNY     59  27  29 E9G16     30.40F
SHENANDOAH *   SUNNY     59  27  29 CALM      30.40F
$$

IAZ047>049-059>061-072>074-084-192300-
   CENTRAL IOWA

CITY           SKY/WX    TMP DP  RH WIND       PRES   REMARKS
AMES           SUNNY     51  27  39 NE8       30.45F
ANKENY *       SUNNY     52  27  37 NE8       30.45F
BOONE *        SUNNY     48  25  40 NE9G16    30.43F
CHARITON *     SUNNY     52  27  37 NE7       30.43S
DES MOINES     MOSUNNY   53  24  32 E9        30.44F
GRINNELL*      SUNNY     50  24  35 NE5       30.45F
KNOXVILLE *    SUNNY     52  23  32 NE6G13    30.42F
MARSHALLTOWN   SUNNY     48  27  44 N10       30.45F
NEWTON *       SUNNY     50  25  37 NE9       30.44F
PELLA *        SUNNY     54  23  29 NE5       30.45F
$$

IAZ004>006-015-016-023>025-035-036-192300-
   NORTH CENTRAL IOWA

CITY           SKY/WX    TMP DP  RH WIND       PRES   REMARKS
ALGONA *       SUNNY     39  19  45 NE6       30.47S WCI  35
CLARION *      SUNNY     39  27  60 N3        30.47S
ESTHERVILLE    SUNNY     36  26  67 S3        30.46S
FORT DODGE *   SUNNY     42  27  55 NE9       30.46F
MASON CITY     SUNNY     41  27  57 N5        30.47F
FOREST CITY *  FAIR      41  23  48 NE8       30.45F
WEBSTER CITY * SUNNY     46  25  42 NE8       30.44S
IOWA FALLS *   FAIR      45  29  52 N7        30.47F
$$

IAZ007>011-017>019-026>030-037>042-050>054-066-192300-
   NORTHEAST IOWA

CITY           SKY/WX    TMP DP  RH WIND       PRES   REMARKS
CEDAR RAPIDS   FAIR      52  24  33 N6        30.43F
CHARLES CITY * FAIR      41  25  52 N7        30.46F
CLINTON *      FAIR      53  27  36 N13       30.44S
DECORAH *      FAIR      43  21  42 NW12      30.44F
DUBUQUE        FAIR      49  25  39 N12       30.44S
MONTICELLO *   FAIR      50  25  37 NW9G15    30.44F
OELWEIN *      FAIR      45  27  49 N12       30.46F
WATERLOO       FAIR      47  23  38 NE13      30.46F
$$

IAZ064-065-067-068-078-192300-
   EAST CENTRAL IOWA

CITY           SKY/WX    TMP DP  RH WIND       PRES   REMARKS
DAVENPORT      FAIR      54  26  34 N6        30.45S
IOWA CITY      FAIR      55  21  26 NW6       30.45F
MT. PLEASANT * SUNNY     55  23  28 NW6       30.43S
MUSCATINE *    FAIR      55  21  26 NE7G14    30.44F
QUAD CITIES    FAIR      55  25  31 N9        30.42S
$$

IAZ062-063-075>077-085>089-095>099-192300-
   SOUTHEAST IOWA

CITY           SKY/WX    TMP DP  RH WIND       PRES   REMARKS
BURLINGTON     SUNNY     57  22  25 N12       30.42S
FAIRFIELD *    SUNNY     54  23  30 E7        30.43S
FORT MADISON * SUNNY     57  28  33 N7        30.43S
KEOKUK *       SUNNY     55  27  33 NE8       30.41F
OSKALOOSA *    FAIR      54  24  31 N8        30.44S
CENTERVILLE *    N/A     54  25  32 NE3       30.44F
OTTUMWA        SUNNY     56  24  29 VRB3      30.42F
WASHINGTON *   SUNNY     55  25  30 N9G20     30.44F
$$

ABBREVIATIONS USED IN REMARKS
   TC - TEMPERATURES IN CELSIUS
  WCI - WIND CHILL INDEX
   HX - HEAT INDEX
  VSB - VISIBILITY
$$





USA.gov is the U.S. government's official web portal to all federal, state and local government web resources and services.